Location: Petruro
(41.0333°N, 14.7833°E)
Time: 09:40:31
(UTC+00:00)

Cosmos 1898 Rocket - Pass Details

Date: 20 June 2021
Orbit: 754 x 783 km, 74.0° (Epoch: 01 August)

Event Time Altitude Azimuth Distance (km) Brightness Sun altitude
Rises 00:28:08 0° 335° (NNW) 3,241 7.4 -22.5°
Reaches altitude 10° 00:30:35 10° 330° (NNW) 2,306 6.4 -22.4°
Maximum altitude 00:35:37 50° 256° (WSW) 969 3.7 -22.0°
Enters shadow 00:36:08 48° 236° (SW) 993 3.7 -22.0°
